User: anonymous   Login
Location: Unspecified
(0.0000°N, 0.0000°E)
Time: 23:32:54
(UTC+00:00)
Language:

YAOGAN 9B - Orbit

View from above orbital plane
View from above orbital plane
View from above satellite
View from above satellite

Ground track
Ground track

The orbit is defined by the following mean orbital elements,

1 36414U          26145.21776480 +.00000000 +00000-0 +11661-3 0 00002
2 36414  63.3674  57.2951 0536439  20.7243 341.4661 13.45704828    03
Epoch (UTC): 25 May 2026 05:13:34
Eccentricity: 0.0536439
inclination: 63.3674°
perigee height: 688 km
apogee height: 1489 km
right ascension of ascending node: 57.2951°
argument of perigee: 20.7243°
revolutions per day: 13.45704828
mean anomaly at epoch: 341.4661°

The dashed part of the orbit path shows where the satellite is in the earth's shadow,  

DLR